Location: Deurze
(52.9838°N, 6.6090°E)
Time: 18:28:02
(UTC+00:00)

Meteor 1-25 Rocket - Pass Details

Date: 11 March 2026
Orbit: 836 x 890 km, 81.2° (Epoch: 20 April)

Event Time Altitude Azimuth Distance (km) Brightness Sun altitude
Rises 18:55:05 0° 196° (SSW) 3,377 7.4 -13.5°
Reaches altitude 10° 18:57:29 10° 198° (SSW) 2,450 6.7 -13.8°
Maximum altitude 19:03:02 77° 285° (WNW) 874 4.4 -14.6°
Drops below altitude 10° 19:08:42 10° 11° (N) 2,494 6.7 -15.5°
Sets 19:11:09 0° 13° (NNE) 3,442 7.4 -15.8°
